Waseca, MN

10:54 PM CDT on May 22, 2017 (GMT -0500)
Waseca Municipal

Weather History for KACQ - January, 2012

Change the Weather History Date:

Saturday, January 21, 2012

  Actual Average Record
Temperature  
Mean Temperature 4 °F -  
Max Temperature 19 °F 22 °F 51 °F (1964)
Min Temperature -9 °F 3 °F -36 °F (1970)
Degree Days  
Heating Degree Days 61    
Moisture  
Dew Point -4 °F    
Average Humidity 73    
Maximum Humidity 85    
Minimum Humidity 58    
Precipitation  
Precipitation 0.00 in - - ()
Sea Level Pressure  
Sea Level Pressure 30.13 in    
Wind  
Wind Speed 5 mph (SE)    
Max Wind Speed 20 mph    
Max Gust Speed 28 mph    
Visibility 10 miles    
Events      
Averages and records for this station are not official NWS values.
T = Trace of Precipitation, MM = Missing Value Source: NWS Daily Summary

Daily Weather History Graph

Daily Weather History Graph

Search for Another Location

Airport or City:

Trip Planner

Search our weather history database for the weather conditions in past years. The results will help you decide how hot, cold, wet, or windy it might be!

Date:

Astronomy

Jan. 21, 2012 Rise Set
Actual Time 7:42 AM CST 5:08 PM CST
Civil Twilight 7:10 AM CST 5:40 PM CST
Nautical Twilight 6:35 AM CST 6:15 PM CST
Astronomical Twilight 6:01 AM CST 6:50 PM CST
Moon 6:15 AM CST (1/21) 3:44 PM CST (1/21)
Length of Visible Light 10h 29m
Length of Day
9h 26m
Waning Crescent, 3% of the Moon is Illuminated
Jan 21
Waning Crescent
Jan 23
New
Jan 30
First Quarter
Feb 7
Full
Feb 14
Last Quarter

Hourly Weather History & Observations

Time (CST) Temp. Windchill Dew Point Humidity Pressure Visibility Wind Dir Wind Speed Gust Speed Precip Events Conditions
12:17 AM -7.6 °F - -14.8 °F 71% 30.23 in 10.0 mi Calm Calm - N/A   Clear
12:37 AM -7.6 °F - -14.8 °F 71% 30.23 in 10.0 mi Calm Calm - N/A   Clear
12:57 AM -7.6 °F - -14.8 °F 71% 30.23 in 10.0 mi Calm Calm - N/A   Clear
1:17 AM -7.6 °F - -14.8 °F 71% 30.24 in 10.0 mi Calm Calm - N/A   Clear
1:38 AM -7.6 °F - -14.8 °F 71% 30.22 in 10.0 mi Calm Calm - N/A   Clear
1:58 AM -7.6 °F - -14.8 °F 71% 30.22 in 10.0 mi Calm Calm - N/A   Clear
2:18 AM -7.6 °F - -14.8 °F 71% 30.23 in 10.0 mi Calm Calm - N/A   Clear
2:37 AM -7.6 °F - -14.8 °F 71% 30.22 in 10.0 mi Calm Calm - N/A   Clear
2:57 AM -7.6 °F - -14.8 °F 71% 30.22 in 10.0 mi Calm Calm - N/A   Clear
3:17 AM -7.6 °F - -14.8 °F 71% 30.21 in 10.0 mi Calm Calm - N/A   Clear
3:38 AM -9.4 °F - -16.6 °F 71% 30.21 in 10.0 mi Calm Calm - N/A   Clear
3:57 AM -7.6 °F - -14.8 °F 71% 30.21 in 10.0 mi Calm Calm - N/A   Clear
4:17 AM -7.6 °F - -14.8 °F 71% 30.21 in 10.0 mi Calm Calm - N/A   Clear
4:38 AM -7.6 °F - -14.8 °F 71% 30.21 in 10.0 mi Calm Calm - N/A   Clear
4:57 AM -7.6 °F - -14.8 °F 71% 30.20 in 10.0 mi Calm Calm - N/A   Scattered Clouds
5:17 AM -7.6 °F - -14.8 °F 71% 30.19 in 10.0 mi Calm Calm - N/A   Scattered Clouds
5:37 AM -7.6 °F - -14.8 °F 71% 30.18 in 10.0 mi Calm Calm - N/A   Clear
5:58 AM -7.6 °F - -14.8 °F 71% 30.19 in 10.0 mi Calm Calm - N/A   Clear
6:17 AM -7.6 °F - -14.8 °F 71% 30.18 in 10.0 mi Calm Calm - N/A   Clear
6:37 AM -7.6 °F - -14.8 °F 71% 30.19 in 10.0 mi Calm Calm - N/A   Clear
6:58 AM -7.6 °F - -14.8 °F 71% 30.19 in 10.0 mi Calm Calm - N/A   Clear
7:18 AM -7.6 °F - -14.8 °F 71% 30.18 in 10.0 mi Calm Calm - N/A   Clear
7:37 AM -7.6 °F -18.8 °F -14.8 °F 71% 30.17 in 10.0 mi ESE 4.6 mph - N/A   Clear
8:17 AM -5.8 °F -16.7 °F -13.0 °F 71% 30.17 in 10.0 mi SE 4.6 mph - N/A   Clear
8:38 AM -5.8 °F -14.5 °F -11.2 °F 77% 30.17 in 10.0 mi ESE 3.5 mph - N/A   Clear
8:58 AM -0.4 °F -13.4 °F -5.8 °F 78% 30.16 in 10.0 mi SE 6.9 mph - N/A   Clear
9:18 AM 1.4 °F -12.5 °F -4.0 °F 78% 30.16 in 10.0 mi SE 8.1 mph - N/A   Clear
9:38 AM 3.2 °F -10.3 °F -0.4 °F 85% 30.18 in 10.0 mi SE 8.1 mph - N/A   Clear
10:17 AM 6.8 °F -8.6 °F 1.4 °F 79% 30.17 in 10.0 mi SE 11.5 mph - N/A   Clear
10:38 AM 8.6 °F -7.7 °F 3.2 °F 79% 30.18 in 10.0 mi SE 13.8 mph - N/A   Clear
11:18 AM 10.4 °F -4.8 °F 5.0 °F 79% 30.17 in 10.0 mi SSE 12.7 mph - N/A   Clear
11:37 AM 12.2 °F -1.0 °F 6.8 °F 79% 30.16 in 10.0 mi SSE 10.4 mph - N/A   Clear
11:58 AM 12.2 °F -3.1 °F 5.0 °F 73% 30.14 in 10.0 mi SSE 13.8 mph - N/A   Clear
12:17 PM 12.2 °F -2.5 °F 3.2 °F 67% 30.11 in 10.0 mi SSE 12.7 mph - N/A   Clear
12:38 PM 14.0 °F -0.2 °F 3.2 °F 62% 30.10 in 10.0 mi SSE 12.7 mph - N/A   Mostly Cloudy
12:57 PM 15.8 °F 2.1 °F 3.2 °F 58% 30.09 in 10.0 mi SSE 12.7 mph 17.3 mph N/A   Overcast
1:18 PM 14.0 °F -3.0 °F 3.2 °F 62% 30.07 in 10.0 mi SSE 18.4 mph 24.2 mph N/A   Overcast
1:38 PM 14.0 °F -0.2 °F 5.0 °F 67% 30.06 in 10.0 mi SSE 12.7 mph 18.4 mph N/A   Overcast
1:57 PM 15.8 °F -0.6 °F 6.8 °F 68% 30.06 in 10.0 mi SSE 18.4 mph 21.9 mph N/A   Mostly Cloudy
2:18 PM 15.8 °F 1.4 °F 6.8 °F 68% 30.04 in 10.0 mi SSE 13.8 mph 17.3 mph N/A   Mostly Cloudy
2:38 PM 15.8 °F -0.2 °F 8.6 °F 73% 30.03 in 10.0 mi SE 17.3 mph - N/A   Overcast
2:57 PM 15.8 °F 0.3 °F 8.6 °F 73% 30.03 in 10.0 mi SE 16.1 mph 23.0 mph N/A   Overcast
3:18 PM 15.8 °F -0.2 °F 8.6 °F 73% 30.02 in 10.0 mi SE 17.3 mph 20.7 mph N/A   Overcast
3:38 PM 15.8 °F 0.3 °F 8.6 °F 73% 30.00 in 10.0 mi SE 16.1 mph 24.2 mph N/A   Overcast
3:57 PM 15.8 °F -0.6 °F 8.6 °F 73% 30.00 in 10.0 mi SE 18.4 mph 21.9 mph N/A   Overcast
4:18 PM 15.8 °F -0.6 °F 10.4 °F 79% 29.99 in 7.0 mi SE 18.4 mph 24.2 mph N/A   Overcast
4:38 PM 15.8 °F -0.6 °F 10.4 °F 79% 29.98 in 7.0 mi SE 18.4 mph 27.6 mph N/A   Overcast
4:58 PM 17.6 °F 1.7 °F 12.2 °F 79% 29.97 in 7.0 mi SE 18.4 mph - N/A   Overcast
5:18 PM 17.6 °F 1.3 °F 12.2 °F 79% 29.96 in 7.0 mi SE 19.6 mph 25.3 mph N/A   Overcast
5:38 PM 17.6 °F 2.7 °F 12.2 °F 79% 29.95 in 10.0 mi SE 16.1 mph 23.0 mph N/A   Overcast
5:57 PM 17.6 °F 1.3 °F 12.2 °F 79% 29.94 in 7.0 mi SE 19.6 mph - N/A   Overcast
6:18 PM 19.4 °F 3.6 °F 12.2 °F 74% 29.93 in 10.0 mi SE 19.6 mph 27.6 mph N/A   Overcast
6:37 PM 19.4 °F 3.6 °F 14.0 °F 80% 29.92 in 10.0 mi SE 19.6 mph 26.5 mph N/A   Overcast
6:57 PM 21.2 °F 5.6 °F 14.0 °F 74% 29.90 in 7.0 mi SE 20.7 mph 29.9 mph N/A   Overcast
7:38 PM 21.2 °F 4.9 °F 14.0 °F 74% 29.88 in 7.0 mi SE 23.0 mph 32.2 mph N/A   Overcast
7:58 PM 21.2 °F 6.4 °F 14.0 °F 74% 29.86 in 5.0 mi SE 18.4 mph 28.8 mph N/A   Haze
8:18 PM 21.2 °F 5.6 °F 14.0 °F 74% 29.86 in 5.0 mi SSE 20.7 mph 32.2 mph N/A   Haze
8:38 PM 21.2 °F 4.2 °F 14.0 °F 74% 29.84 in 5.0 mi SE 25.3 mph 32.2 mph N/A   Haze
9:18 PM 21.2 °F 3.9 °F 14.0 °F 74% 29.81 in 5.0 mi SE 26.5 mph 33.4 mph N/A   Haze
9:38 PM 21.2 °F 5.2 °F 14.0 °F 74% 29.81 in 5.0 mi SE 21.9 mph 31.1 mph N/A   Haze
9:57 PM 21.2 °F 6.4 °F 14.0 °F 74% 29.80 in 4.0 mi SSE 18.4 mph 29.9 mph N/A   Haze
10:17 PM 21.2 °F 4.9 °F 14.0 °F 74% 29.80 in 4.0 mi SSE 23.0 mph 28.8 mph N/A   Haze
10:38 PM 21.2 °F 5.2 °F 14.0 °F 74% 29.79 in 3.0 mi SSE 21.9 mph 33.4 mph N/A   Haze
10:57 PM 21.2 °F 5.2 °F 15.8 °F 80% 29.79 in 4.0 mi SSE 21.9 mph 28.8 mph N/A   Haze
11:37 PM 21.2 °F 6.0 °F 15.8 °F 80% 29.79 in 3.0 mi SSE 19.6 mph 26.5 mph N/A   Haze